Location: Montbazon
(47.2835°N, 0.6999°E)
Time: 17:01:24
(UTC+00:00)

ADEOS Rocket - Pass Details

Date: 08 November 2025
Orbit: 859 x 1304 km, 98.7° (Epoch: 09 December)

Event Time Altitude Azimuth Distance (km) Brightness Sun altitude
Rises 04:17:28 0° 9° (N) 3,751 6.2 -26.2°
Reaches altitude 10° 04:19:58 10° 3° (N) 2,856 5.5 -25.8°
Enters shadow 04:25:41 44° 303° (WNW) 1,505 3.6 -24.8°
